0% found this document useful (0 votes)
2 views12 pages

Data 5

The document contains weather data for various cities including New York, Los Angeles, Toronto, Mexico City, and Chicago for January 1, 2026. It includes measurements such as temperature, wind speed, humidity, and pressure at different timestamps. The data shows varying weather conditions across the cities, with New York and Toronto experiencing colder temperatures compared to Los Angeles and Mexico City.

Uploaded by

jonty
Copyright
© All Rights Reserved
We take content rights seriously. If you suspect this is your content, claim it here.
Available Formats
Download as DOCX, PDF, TXT or read online on Scribd
0% found this document useful (0 votes)
2 views12 pages

Data 5

The document contains weather data for various cities including New York, Los Angeles, Toronto, Mexico City, and Chicago for January 1, 2026. It includes measurements such as temperature, wind speed, humidity, and pressure at different timestamps. The data shows varying weather conditions across the cities, with New York and Toronto experiencing colder temperatures compared to Los Angeles and Mexico City.

Uploaded by

jonty
Copyright
© All Rights Reserved
We take content rights seriously. If you suspect this is your content, claim it here.
Available Formats
Download as DOCX, PDF, TXT or read online on Scribd

timestamp,station,temperature_C,wind_speed_kmh,humidity_pct,pressure

_hPa

2026-01-01 00:00,New York,-2.5,18,65,1018

2026-01-01 00:00,Los Angeles,12.4,10,58,1015


timestamp,station,temperature_C,wind_speed_kmh,humidity_pct,pressure
_hPa

2026-01-01 00:00,New York,-2.5,18,65,1018

2026-01-01 00:00,Los Angeles,12.4,10,58,1015


timestamp,station,temperature_C,wind_speed_kmh,humidity_pct,pressure
_hPa

2026-01-01 00:00,New York,-2.5,18,65,1018

2026-01-01 00:00,Los Angeles,12.4,10,58,1015

timestamp,station,temperature_C,wind_speed_kmh,humidity_pct,pressure
_hPa

2026-01-01 00:00,New York,-2.5,18,65,1018


2026-01-01 00:00,Los Angeles,12.4,10,58,1015
timestamp,station,temperature_C,wind_speed_kmh,humidity_pct,pressure
_hPa

2026-01-01 00:00,New York,-2.5,18,65,1018

2026-01-01 00:00,Los Angeles,12.4,10,58,1015

2026-01-01 00:00,Toronto,-6.8,20,70,1020

timestamp,station,temperature_C,wind_speed_kmh,humidity_pct,pressure
_hPa

2026-01-01 00:00,New York,-2.5,18,65,1018

2026-01-01 00:00,Los Angeles,12.4,10,58,1015


2026-01-01 00:00,Toronto,-6.8,20,70,1020

2026-01-01 00:00,Mexico City,9.7,12,55,1016

timestamp,station,temperature_C,wind_speed_kmh,humidity_pct,pressure
_hPa

2026-01-01 00:00,New York,-2.5,18,65,1018

2026-01-01 00:00,Los Angeles,12.4,10,58,1015


2026-01-01 00:00,Toronto,-6.8,20,70,1020

2026-01-01 00:00,Mexico City,9.7,12,55,1016


timestamp,station,temperature_C,wind_speed_kmh,humidity_pct,pressure
_hPa

2026-01-01 00:00,New York,-2.5,18,65,1018

2026-01-01 00:00,Los Angeles,12.4,10,58,1015

2026-01-01 00:00,Toronto,-6.8,20,70,1020

2026-01-01 00:00,Mexico City,9.7,12,55,1016

2026-01-01 00:00,Chicago,-4.2,22,68,1019
timestamp,station,temperature_C,wind_speed_kmh,humidity_pct,pressure
_hPa

2026-01-01 00:00,New York,-2.5,18,65,1018

2026-01-01 00:00,Los Angeles,12.4,10,58,1015

2026-01-01 00:00,Toronto,-6.8,20,70,1020

2026-01-01 00:00,Mexico City,9.7,12,55,1016

2026-01-01 00:00,Chicago,-4.2,22,68,1019

2026-01-01 01:00,New York,-2.9,17,66,1019

2026-01-01 01:00,Los Angeles,12.0,9,59,1016

2026-01-01 01:00,Toronto,-7.2,19,71,1021

2026-01-01 01:00,Mexico City,9.3,11,56,1017

2026-01-01 01:00,Chicago,-4.6,21,69,1020

2026-01-01 02:00,New York,-3.4,16,67,1020

2026-01-01 02:00,Los Angeles,11.6,8,60,1017

2026-01-01 01:00,New York,-2.9,17,66,1019

2026-01-01 01:00,Los Angeles,12.0,9,59,1016

2026-01-01 01:00,Toronto,-7.2,19,71,1021

2026-01-01 01:00,Mexico City,9.3,11,56,1017

2026-01-01 01:00,Chicago,-4.6,21,69,1020

2026-01-01 02:00,New York,-3.4,16,67,1020

2026-01-01 02:00,Los Angeles,11.6,8,60,1017

2026-01-01 00:00,Chicago,-4.2,22,68,1019

2026-01-01 01:00,New York,-2.9,17,66,1019

2026-01-01 01:00,Los Angeles,12.0,9,59,1016

2026-01-01 01:00,Toronto,-7.2,19,71,1021

2026-01-01 01:00,Mexico City,9.3,11,56,1017


2026-01-01 01:00,Chicago,-4.6,21,69,1020

2026-01-01 02:00,New York,-3.4,16,67,1020

2026-01-01 02:00,Los Angeles,11.6,8,60,1017

2026-01-01 00:00,Chicago,-4.2,22,68,1019

2026-01-01 01:00,New York,-2.9,17,66,1019

2026-01-01 01:00,Los Angeles,12.0,9,59,1016

2026-01-01 01:00,Toronto,-7.2,19,71,1021

2026-01-01 01:00,Mexico City,9.3,11,56,1017

2026-01-01 01:00,Chicago,-4.6,21,69,1020

2026-01-01 02:00,New York,-3.4,16,67,1020

2026-01-01 02:00,Los Angeles,11.6,8,60,1017

2026-01-01 00:00,Mexico City,9.7,12,55,1016

2026-01-01 00:00,Chicago,-4.2,22,68,1019

2026-01-01 01:00,New York,-2.9,17,66,1019

2026-01-01 01:00,Los Angeles,12.0,9,59,1016

2026-01-01 01:00,Toronto,-7.2,19,71,1021

2026-01-01 01:00,Mexico City,9.3,11,56,1017

2026-01-01 01:00,Chicago,-4.6,21,69,1020

2026-01-01 02:00,New York,-3.4,16,67,1020

2026-01-01 02:00,Los Angeles,11.6,8,60,1017

2026-01-01 00:00,Toronto,-6.8,20,70,1020

2026-01-01 00:00,Mexico City,9.7,12,55,1016

2026-01-01 00:00,Chicago,-4.2,22,68,1019

2026-01-01 01:00,New York,-2.9,17,66,1019

2026-01-01 01:00,Los Angeles,12.0,9,59,1016

2026-01-01 01:00,Toronto,-7.2,19,71,1021

2026-01-01 01:00,Mexico City,9.3,11,56,1017

2026-01-01 01:00,Chicago,-4.6,21,69,1020

2026-01-01 02:00,New York,-3.4,16,67,1020


2026-01-01 02:00,Los Angeles,11.6,8,60,1017

2026-01-01 00:00,Toronto,-6.8,20,70,1020

2026-01-01 00:00,Mexico City,9.7,12,55,1016

2026-01-01 00:00,Chicago,-4.2,22,68,1019

2026-01-01 01:00,New York,-2.9,17,66,1019

2026-01-01 01:00,Los Angeles,12.0,9,59,1016

2026-01-01 01:00,Toronto,-7.2,19,71,1021

2026-01-01 01:00,Mexico City,9.3,11,56,1017

2026-01-01 01:00,Chicago,-4.6,21,69,1020

2026-01-01 02:00,New York,-3.4,16,67,1020

2026-01-01 02:00,Los Angeles,11.6,8,60,1017

2026-01-01 00:00,Toronto,-6.8,20,70,1020

2026-01-01 00:00,Mexico City,9.7,12,55,1016

2026-01-01 00:00,Chicago,-4.2,22,68,1019

2026-01-01 01:00,New York,-2.9,17,66,1019

2026-01-01 01:00,Los Angeles,12.0,9,59,1016

2026-01-01 01:00,Toronto,-7.2,19,71,1021

2026-01-01 01:00,Mexico City,9.3,11,56,1017

2026-01-01 01:00,Chicago,-4.6,21,69,1020

2026-01-01 02:00,New York,-3.4,16,67,1020

2026-01-01 02:00,Los Angeles,11.6,8,60,1017

2026-01-01 00:00,Toronto,-6.8,20,70,1020

2026-01-01 00:00,Mexico City,9.7,12,55,1016

2026-01-01 00:00,Chicago,-4.2,22,68,1019

2026-01-01 01:00,New York,-2.9,17,66,1019

2026-01-01 01:00,Los Angeles,12.0,9,59,1016

2026-01-01 01:00,Toronto,-7.2,19,71,1021

2026-01-01 01:00,Mexico City,9.3,11,56,1017

2026-01-01 01:00,Chicago,-4.6,21,69,1020
2026-01-01 02:00,New York,-3.4,16,67,1020

2026-01-01 02:00,Los Angeles,11.6,8,60,1017

You might also like